User: anonymous   Login
Location: ???????
(55.9142°N, 37.8256°E)
Time: 17:53:30
(UTC+00:00)
Language:

Cosmos 1805 - Orbit

View from above orbital plane
View from above orbital plane
View from above satellite
View from above satellite

Ground track
Ground track

The orbit data is extracted from the following two-line orbital elements,

1 17191U 86097A   24171.30257898  .00007572  00000-0  30050-3 0  9998
2 17191  82.4702  18.7925 0002194 211.5784 148.5322 15.25194859 50931
Epoch (UTC): 19 June 2024 07:15:42
Eccentricity: 0.0002194
inclination: 82.4702°
perigee height: 489 km
apogee height: 492 km
right ascension of ascending node: 18.7925°
argument of perigee: 211.5784°
revolutions per day: 15.25194859
mean anomaly at epoch: 148.5322°
orbit number at epoch: 5093

The dashed part of the orbit path shows where the satellite is in the earth's shadow,  

DLR